Home > Weather > Haltern am See > Past weeks

Flag for Germany Past Weather in Haltern am See, North Rhine-Westphalia, Germany — Yesterday and Last 2 Weeks

Now
63 °F

Sunny.


Feels Like: 63 °F
Forecast: 56 / 70 °F
Wind: 3 mph from Southeast

Location: Dortmund / Wickede

Current Time: May 31, 2016 at 12:28:47 AM

Latest Report: May 30, 2016 at 9:50 PM


Visibility: 10 mi

Pressure: 29.65 "Hg

Humidity: 73%

Dew Point: 54 °F

Location of Haltern am SeeLocation

Past Weather in Haltern am See — Graph

°F

Haltern am See Temperature Yesterday

Maximum temperature yesterday: 70 °F (at 5:50 PM)
Minimum temperature yesterday: 59 °F (at 5:20 AM)
Average temperature yesterday: 63 °F

High & Low Weather Summary for the Past Weeks

 TemperatureHumidityPressure
High73 °F (May 21, 5:50 PM)100% (May 30, 11:20 AM)30.12 "Hg (May 30, 11:20 AM)
Low41 °F (May 16, 5:20 AM)37% (May 18, 1:50 PM)29.59 "Hg (May 30, 3:50 PM)
Average58 °F68%29.92 "Hg
* Reported May 15 9:20 PM — May 30 9:50 PM, Haltern am See, Weather by CustomWeather, © 2016

Note: Actual official high and low records may vary slightly from our data, if they occured in-between our weather recording intervals... More about our weather records

Advertising

Haltern am See Weather History for the Previous 24 Hours

Scroll right to see more
 ConditionsComfort  
Time TempWeatherWind HumidityBarometerVisibility
9:50 PM
Mon, May 30
63 °FSunny.3 mph73%29.65 "Hg10 mi
9:20 PM64 °FScattered clouds.9 mph68%29.62 "HgN/A
8:50 PM64 °FPassing clouds.6 mph68%29.62 "HgN/A
8:20 PM66 °FPartly sunny.7 mph68%29.62 "HgN/A
7:50 PM68 °FPassing clouds.10 mph64%29.59 "HgN/A
7:20 PM68 °FSunny.9 mph69%29.59 "Hg10 mi
6:50 PM70 °FSunny.12 mph69%29.59 "Hg10 mi
6:20 PM68 °FBroken clouds.5 mph83%29.59 "HgN/A
5:50 PM70 °FScattered showers. Broken clouds.5 mph83%29.59 "HgN/A
5:20 PM68 °FPartly sunny.3 mph83%29.59 "HgN/A
4:50 PM68 °FPartly sunny.5 mph88%29.59 "Hg6 mi
4:20 PM66 °FFog.6 mph94%29.59 "Hg2 mi
3:50 PM64 °FSprinkles. Fog.2 mph94%29.59 "Hg1 mi
3:20 PM64 °FThundershowers. Partly sunny.6 mph94%29.62 "Hg1 mi
2:50 PM64 °FLight rain. Fog.2 mph94%29.62 "Hg1 mi
2:20 PM64 °FFog.2 mph94%29.62 "Hg1 mi
1:50 PM63 °FFog.No wind100%29.62 "Hg2 mi
12:50 PM61 °FDrizzle. Fog.7 mph100%29.62 "Hg1 mi
12:20 PM61 °FDrizzle. Fog.2 mph100%29.62 "Hg1 mi
11:50 AM61 °FDrizzle. Fog.7 mph94%29.62 "Hg1 mi
11:20 AM59 °FLight rain. Fog.8 mph100%29.62 "Hg1 mi
10:50 AM59 °FThundershowers. Fog.8 mph94%29.62 "Hg0 mi
10:20 AM59 °FLight rain. Fog.9 mph94%29.62 "Hg0 mi
9:50 AM59 °FDrizzle. Fog.9 mph94%29.62 "Hg0 mi
9:20 AM59 °FDrizzle. Fog.12 mph88%29.62 "Hg0 mi
8:50 AM59 °FDrizzle. Fog.9 mph88%29.62 "Hg0 mi
7:50 AM59 °FLight rain. Fog.9 mph94%29.65 "Hg1 mi
6:50 AM59 °FLight rain. Fog.5 mph94%29.62 "Hg2 mi
6:20 AM59 °FLight rain. Fog.10 mph94%29.65 "Hg2 mi
5:50 AM59 °FThunderstorms. Fog.5 mph94%29.65 "Hg1 mi
5:20 AM59 °FThundershowers. Low clouds.5 mph94%29.68 "Hg1 mi
Weather by CustomWeather, © 2016

See weather overviewHow to use our weather pages